Regional Weather Roundup
Issued by NWS Newport/Morehead, NC

Current Version | Previous Version | Graphics & Text | Print | Product List | Glossary Off
Versions: 1 2 3 4 5 6 7 8 9 10 11 12 13 14 15 16 17 18 19 20 21 22 23 24 25 26 27 28 29 30 31 32 33 34 35 36 37 38 39 40 41 42 43 44 45 46 47 48 49 50

000
ASUS42 KMHX 180122
RWRMHX
WEATHER ROUNDUP FOR EASTERN NORTH CAROLINA
NATIONAL WEATHER SERVICE NEWPORT/MOREHEAD CITY NC
800 PM EST WED DEC 17 2014

NOTE: "FAIR" INDICATES FEW OR NO CLOUDS BELOW 12,000 FEET
WITH NO SIGNIFICANT WEATHER AND/OR OBSTRUCTIONS TO VISIBILITY

NCZ015>017-031-032-045>047-102-103-180200-
NORTH COAST

CITY           SKY/WX    TMP DP  RH WIND       PRES   REMARKS
EDENTON          N/A     42  39  91 CALM      30.05S
ELIZABETH CITY PTCLDY    50  39  66 SW6       30.04R
KITTY HAWK     PTCLDY    47  45  91 CALM      30.03R
MANTEO         CLEAR     44  43  98 CALM      30.05R

$$

NCZ045>047-081-094-103-104-180200-
CENTRAL COAST

CITY           SKY/WX    TMP DP  RH WIND       PRES   REMARKS
FRISCO         CLEAR     50  47  89 W6        30.06R
SWANQUARTER      N/A     46 N/A N/A W2        30.03S

$$

NCZ095-097-098-100-101-180200-
SOUTHERN COAST

CITY           SKY/WX    TMP DP  RH WIND       PRES   REMARKS
BEAUFORT       CLEAR     53  48  83 W8        30.07S
CEDAR ISLAND     N/A     48 N/A N/A SW5       30.09S
JACKSONVILLE   CLEAR     48  41  76 SW6       30.08R
PINEY ISLAND   NOT AVBL
WILMINGTON     CLEAR     49  43  80 SW5       30.08S


$$

NCZ011>013-027>030-043-044-078>080-089-090>093-098-180200-
COASTAL PLAIN

CITY           SKY/WX    TMP DP  RH WIND       PRES   REMARKS
AHOSKIE        CLEAR     40  38  95 CALM      30.05F
CLINTON        PTCLDY    43  42  95 CALM      30.08S
ELIZABETHTOWN  PTCLDY    45  40  84 CALM      30.08S
GOLDSBORO      PTCLDY    46  46  97 CALM      30.06R
GREENVILLE     PTCLDY    41  41 100 CALM      30.08S
HAVELOCK       CLEAR     46  42  86 SW5       30.08S
KENANSVILLE    CLEAR     40  39  96 CALM      30.08S
KINSTON        CLEAR     46  39  76 SW3       30.07S
NEW BERN       CLEAR     46  41  82 CALM      30.08R
RICHLANDS      CLEAR     41  36  81 CALM      30.08S
ROCKY MOUNT    PTCLDY    41  38  89 CALM      30.06R
WASHINGTON     PTCLDY    43  40  89 CALM      30.06S
WHITEVILLE     CLEAR     44  40  85 SW3       30.08S

$$

AMZ130-135-150-152-154-156-158-170-250-252-270-ANZ085-086-088-633-658-670-180200-
MARINE OBSERVATIONS

STATION/POSITION TIME  TEMP    WIND        PRES    WAVE   SWELL
                       AIR SEA DIR/SP/G            HT/PER HT/PER
                 (UTC) (F)     (DEG/KT/KT) (MB)    (FT/S) (FT/S)
CHESAPEAKE LIGHT 0100   53     260/ 12/ 12 1017.0
64 E VA BEACH    0100   54 55  230/  8/ 10 1016.2    2/ 8   2/ 8
DUCK             0100   51 49  270/  7/  8 1016.3
2 E DUCK         0100      48                N/A     1/ 8
10 NE DUCK       0100      51                N/A     2/ 8
OREGON INLET     0100   50 51  230/  4/  5 1017.4
13E OREGON INLT  0100      53                N/A     2/ 8
HATTERAS CG      0100   54 55  260/  9/ 11 1017.9
DIAMOND BUOY     0100   58                 1018.0    3/ 7
17 S OCRACOKE    NOT AVBL
CAPE LOOKOUT     0100   56     250/ 11/ 13 1018.1
BEAUFORT LAB     0100   54 53  260/  4/  7 1017.2
30 SE NEW RIVER  0100   58 61  250/ 14/ 16 1018.9    3/ 6   2/ 6
5 SE WRIGHTSVLE  0100   51 55  250/ 10/ 10 1018.6
225 S CAPE HAT   0033   67 73  290/  4/  8 1019.4    6/ 7   5/ 7
41 SE CHARLESTON 0100   61 73  280/  8/ 10 1019.5    2/11   2/11

$$


USA.gov is the U.S. government's official web portal to all federal, state and local government web resources and services.